Location: Unsp...
(0.0000°N, 0.0000°E)
Time: 21:51:31
(UTC+02:00)

Daily predictions for brighter satellites

Satellite Brightness Start Highest point End
(mag) Time Altitude Azimuth Time Altitude Azimuth Time Altitude Azimuth
Sylda 5 4.4 20:01:01 10° W 20:06:32 85° S 21:03:00 10° E
CZ-3C R/B 2.6 20:04:47 10° SW 20:07:57 53° SSE 20:22:46 10° ENE
CSL-04 Debris 4.3 20:12:24 10° SSE 20:17:49 90° SSW 20:23:15 10° NNW
Meteor 1-27 Rocket 3.9 20:12:23 10° S 20:18:08 82° W 20:23:45 10° N
USA 234 3.3 20:12:20 10° NE 20:18:53 76° SE 20:25:27 10° SSW
CZ-3C R/B 3.9 20:16:09 10° SSW 20:19:13 15° SSE 20:25:02 10° SE
MTI 3.8 20:20:44 10° N 20:23:54 84° W 20:27:05 10° SSW
Cosmos 2221 Rocket 4.2 20:21:13 10° SSW 20:25:44 64° W 20:30:13 10° N
Cosmos 1570 Rocket 4.4 20:23:18 10° S 20:28:18 42° ESE 20:33:18 10° NNE
Lacrosse 4 Rocket 1.9 20:25:01 10° N 20:29:13 43° ENE 20:33:20 10° SE
CZ-4 R/B 2.4 20:32:48 10° S 20:36:54 51° WSW 20:40:57 10° NNW
H-2A R/B -0.3 20:34:53 10° WNW 20:37:16 68° SW 20:38:20 17° SE
Haruka 3.8 20:42:38 10° NW 20:46:50 28° NNE 20:49:07 14° E
Cosmos 1184 Rocket 2.8 20:46:44 10° S 20:50:05 83° W 20:53:26 10° N
Cosmos 1536 4.1 20:48:10 10° NE 20:51:19 22° E 20:52:20 20° ESE
H-2A R/B 2.7 20:49:46 10° SSE 20:53:35 62° E 20:57:25 10° N
Cosmos 1459 Rocket 4.0 20:47:39 10° S 20:53:45 84° W 20:59:46 10° N
Ariane H10+ 1.5 20:54:30 10° WSW 20:55:59 29° SSW 20:55:59 29° SSW
Cosmos 1812 3.1 20:53:52 10° S 20:57:42 67° W 21:01:30 10° N
FREGAT/IRIS 3.9 21:00:03 23° ENE 21:00:03 23° ENE 21:02:02 10° NNE
Cosmos 2208 Rocket 4.0 20:55:59 10° SSW 21:01:16 90° E 21:06:27 10° NNE
Envisat 4.2 21:00:41 21° E 21:01:42 22° ENE 21:05:35 10° NNE
Cosmos 2173 Rocket 4.5 20:59:02 10° SSW 21:05:18 65° W 21:11:36 10° N
NOAA 12 4.5 21:00:27 10° S 21:05:37 64° WSW 21:10:47 10° NNW
Cosmos 1782 Rocket 3.9 21:01:48 10° NNW 21:06:06 66° W 21:10:24 10° S
YAOGAN 1 4.4 21:03:05 10° SSW 21:06:54 31° WSW 21:10:45 10° NW
Okean 2 Rocket 3.1 21:02:51 10° N 21:07:14 60° E 21:10:30 18° SSE
Cosmos 2369 4.2 21:02:30 10° N 21:07:46 40° ENE 21:10:13 27° ESE
Meteor 1-11 Rocket 3.7 21:02:35 10° N 21:08:15 73° E 21:14:05 10° S
USA 215 4.2 21:02:19 10° SSE 21:08:29 45° SW 21:14:39 10° WNW
Cosmos 1271 Rocket 3.1 21:06:26 10° NNW 21:10:14 62° W 21:14:00 10° S
SL-08 R/B 4.4 21:06:25 10° S 21:12:49 77° E 21:19:08 10° N
MOS 1 4.3 21:07:53 10° S 21:13:34 81° WSW 21:19:12 10° NNW
Cosmos 968 Rocket 3.6 21:08:42 10° NNW 21:13:53 75° WSW 21:18:47 11° S
PSLV R/B 4.3 21:12:03 10° NNW 21:14:38 28° NE 21:14:38 28° NE
Okean 1 3.3 21:14:30 28° SSE 21:16:23 55° E 21:20:20 10° NNE
FengYun 1-2 T 4.2 21:13:00 13° SSE 21:18:10 78° ENE 21:23:48 10° N
IRAS Rocket 4.1 21:18:02 17° SSE 21:22:17 82° ENE 21:27:46 10° N
Cosmos 2016 Rocket 4.5 21:21:52 10° SSW 21:27:50 59° W 21:33:48 10° N
Meteor 1-5 Rocket 4.3 21:25:44 10° N 21:31:43 89° W 21:36:00 20° S
Fermi 4.4 21:32:11 10° SW 21:35:10 43° SSW 21:35:10 43° SSW
Delta R/B 4.1 21:34:27 10° WSW 21:37:34 79° NNW 21:49:46 10° ENE
CZ-2D R/B 4.2 21:39:42 37° NNE 21:39:42 37° NNE 21:42:12 10° N
Cosmos 2151 Rocket 3.4 21:34:27 10° N 21:38:38 74° ENE 21:38:38 74° ENE
Cosmos 1725 Rocket 4.3 21:34:53 10° SSW 21:41:00 66° W 21:47:05 10° N
Cosmos 2278 3.6 21:39:54 10° NNW 21:45:34 90° ENE 21:46:50 57° SSE
Cosmos 1656 3.7 21:41:28 10° NNW 21:46:57 75° WSW 21:48:23 49° S
Cosmos 1763 Rocket 3.8 21:41:50 10° SSW 21:47:05 65° WNW 21:52:20 10° N
BREEZE-M DEB (TANK) 4.4 21:49:31 10° WNW 21:51:44 28° SW 21:51:44 28° SW
Cosmos 841 Rocket 3.4 21:53:32 86° N 21:53:32 86° N 21:58:38 10° NNE
Cosmos 44 Rocket 4.3 21:50:54 10° N 21:54:26 39° NNE 21:54:26 39° NNE
NATO 3D Rocket 3.8 21:56:20 10° WSW 22:01:39 79° NNW 22:02:15 71° NNE
Meteor 1-19 Rocket 4.2 22:01:06 72° SSW 22:01:45 85° W 22:07:39 10° N
CENTAUR R/B 4.3 22:00:51 10° WSW 22:05:11 24° WNW 22:09:44 10° NNW
Cosmos 1697 Rocket 2.8 22:01:18 10° NNW 22:06:23 72° NW 22:06:23 72° NW
ARIANE 5 R/B 3.5 22:06:34 10° W 22:10:37 74° N 22:13:41 47° ENE
ARIANE 5 R/B 3.5 22:06:34 10° W 22:10:37 74° N 22:13:42 47° ENE
ARIANE 5 R/B 3.5 22:06:34 10° W 22:10:37 74° N 22:13:43 47° ENE
Ariane H10 3.6 21:55:43 10° W 22:10:41 66° SSW 22:10:41 66° SSW
Cosmos 44 4.4 22:12:10 10° NW 22:16:43 45° W 22:16:43 45° W
Cosmos 1980 Rocket 3.5 22:15:27 10° N 22:18:20 31° N 22:18:20 31° N
ARIANE 5 R/B 4.5 22:22:26 10° WNW 22:25:32 31° NW 22:25:32 31° NW
Ariane H10-3 4.2 22:49:06 10° W 22:54:58 28° WSW 22:54:58 28° WSW
